User: anonymous   Login
Location: Smithers
(54.7670°N, 127.1670°W)
Time: 18:33:38
(UTC-08:00)
Language:

ERBS - Orbit

View from above orbital plane
View from above orbital plane
View from above satellite
View from above satellite

Ground track
Ground track

The orbit data is extracted from the following two-line orbital elements,

1 15354U 84108B   16042.59931130  .00009365  00000-0  24561-3 0  9997
2 15354  57.0093  88.8724 0007220 240.1963 119.8373 15.39391706722385
Epoch (UTC): 11 February 2016 14:23:00
Eccentricity: 0.0007220
inclination: 57.0093°
perigee height: 443 km
apogee height: 453 km
right ascension of ascending node: 88.8724°
argument of perigee: 240.1963°
revolutions per day: 15.39391706
mean anomaly at epoch: 119.8373°
orbit number at epoch: 72238

The dashed part of the orbit path shows where the satellite is in the earth's shadow,  

DLR